Regional Weather Roundup
Issued by NWS

Home | Current Version | Previous Version | Text Only | Print | Product List | Glossary On
Versions: 1 2 3 4 5 6 7 8 9 10 11 12 13 14 15 16 17 18 19 20 21 22 23 24 25 26 27 28 29 30 31 32 33 34 35 36 37 38 39 40 41 42 43 44 45 46 47 48 49 50
111
ASUS42 KTBW 240317
RWRFL
FLORIDA REGIONAL WEATHER ROUNDUP
NATIONAL WEATHER SERVICE TAMPA BAY RUSKIN FL
1100 PM EDT SUN APR 23 2017

NOTE: "FAIR" INDICATES FEW OR NO CLOUDS BELOW 12,000 FEET WITH NO
SIGNIFICANT WEATHER AND/OR OBSTRUCTIONS TO VISIBILITY.

FLZ001>010-012>015-112-114-115-240400-
PANHANDLE FLORIDA

CITY           SKY/WX    TMP DP  RH WIND       PRES   REMARKS
PENSACOLA      CLEAR     60  50  69 NW12      29.88R
PENSACOLA NAS  CLEAR     60  50  69 NW15G22   29.87R
MILTON NAS     LGT RAIN  57  51  80 NW8       29.88
CRESTVIEW      MOCLDY    60  51  72 N10G20    29.88R
DUKE FIELD     MOCLDY    61  50  68 NW12      29.86R
VALPARAISO     PTCLDY    62  51  66 NW14      29.85R
MARY ESTHER    PTCLDY    62  46  56 NW13      29.85R
PANAMA CITY    FAIR      61  58  90 NW10      29.83R
TYNDALL AFB    CLEAR     65  58  80 N5        29.83R
APALACHICOLA   MOCLDY    68  62  81 W6        29.82R

STATION/POSITION SKY/WX   TEMP    WIND        PRES    WAVE   SWELL
                          AIR SEA DIR/SP/G            HT/PER HT/PER
                          (F)     (DEG/KT/KT) (MB)    (FT/S) (FT/S)
30.1N   87.6W              63 75  350/ 19/ 23 1011.2R   3/ 4
29.2N   88.2W              68 75  340/ 21/ 27 1012.1R   4/ 5
28.8N   86.0W              70 74  300/ 14/ 16 1010.4R   3/ 5
PANAMA CITY BEAC           65 77   10/  4/  5 1010.2R
TOWER C                    70     290/ 24/ 25 1010.0R
28.5N   84.5W              72 74  310/ 14/ 17 1009.8R   2/ 3   2/ 5

$$
FLZ011-016>038-118-127-128-134-139-239-240400-
NORTH FLORIDA

CITY           SKY/WX    TMP DP  RH WIND       PRES   REMARKS
MARIANNA       PTCLDY    63  58  83 W6        29.81S
TALLAHASSEE    CLOUDY    65  64  97 N7        29.81R
PERRY          MOCLDY    71  64  80 CALM      29.79S
CROSS CITY     CLEAR     68  66  94 SW5       29.80S
LAKE CITY      FAIR      72  66  83 SW6       29.79S
GAINESVILLE    MOCLDY    74  64  71 SW9       29.80R
WILLISTON      CLEAR     75  68  78 CALM      29.81R
PALATKA        CLOUDY    75  66  73 S9        29.80S
MAYPORT NAS    MOCLDY    72  69  90 S13G23    29.78S
JACKSONVILLE   MOCLDY    74  65  73 S10       29.77F
JAX NAS        MOCLDY    76  66  71 SE14      29.79S
FERNANDINA BEA CLOUDY    75  70  83 S8        29.78R
ST AUGUSTINE   CLOUDY    75  68  78 S12       29.80S

STATION/POSITION SKY/WX   TEMP    WIND        PRES    WAVE   SWELL
                          AIR SEA DIR/SP/G            HT/PER HT/PER
                          (F)     (DEG/KT/KT) (MB)    (FT/S) (FT/S)
SHELL POINT      NOT AVBL
KEATON BEACH               74     240/ 18/ 19 1008.4S
CEDAR KEY                  74     280/  8/ 10 1009.5R
FERNANDINA                 74 75  170/  5/ 11 1009.3R
30.7N   81.3W                 73                N/A     4/ 5   2/13
MAYPORT                    75 75  170/ 10/ 14 1008.7F
31.4N   80.9W              74 72  160/ 16/ 19 1008.2R   3/12   2/12
ST AUGUSTINE               74 76  160/ 21/ 23 1009.5F

$$
FLZ040-043>046-052-053-057-058-063-144-240400-
INTERIOR CENTRAL FLORIDA

CITY           SKY/WX    TMP DP  RH WIND       PRES   REMARKS
OCALA          CLOUDY    72  64  78 CALM      29.81S
THE VILLAGES     N/A     73  68  83 CALM      29.72R
LEESBURG       MOCLDY    75  66  73 S3        29.82R
SANFORD        CLEAR     73  66  78 S8        29.81S
ORLANDO EXEC   CLEAR     73  66  78 S6        29.82R
ORLANDO INTL   PTCLDY    72  67  84 SE7       29.83R
KISSIMMEE      CLEAR     73  67  81 SE6       29.83R
WINTER HAVEN   PTCLDY    71  64  78 S7        29.84R
LAKELAND       PTCLDY    73  66  78 CALM      29.83R
BARTOW         FAIR      72  64  78 S6        29.83R
OKEECHOBEE     CLEAR     68  64  88 CALM      29.82S

$$
FLZ041-047-054-059-064-141-147-240400-
EAST CENTRAL FLORIDA

CITY           SKY/WX    TMP DP  RH WIND       PRES   REMARKS
DAYTONA BEACH  CLEAR     72  68  87 SE6       29.81S
DELAND         PTCLDY    72  66  83 SE6       29.81S
JFK SPACE CTR  CLEAR     66  64  94 CALM      29.81S FOG
CAPE CANAVERAL CLEAR     72  67  84 S6        29.81R
PATRICK AFB    CLEAR     74  69  85 SE7       29.81R
MELBOURNE      CLEAR     75  69  81 SE7       29.81S
VERO BEACH     PTCLDY    74  69  85 E5        29.81S
FT PIERCE      PTCLDY   N/A N/A N/A CALM      29.80F
STUART         PTCLDY    75 N/A N/A E5        29.81S

STATION/POSITION SKY/WX   TEMP    WIND        PRES    WAVE   SWELL
                          AIR SEA DIR/SP/G            HT/PER HT/PER
                          (F)     (DEG/KT/KT) (MB)    (FT/S) (FT/S)
28.5N   80.2W              76 75  120/ 10/ 14 1010.3R   4/13   3/13
28.9N   78.5W              74 79  120/ 23/ 29 1009.0R   7/ 7   3/12
TRIDENT PIER               73 77  140/  6/  9 1011.0R
28.4N   80.5W                 76                N/A     3/ 5   2/13
27.5N   80.2W                 78                N/A     5/13   3/13

$$
FLZ050-056-061-142-242-148-248-149-249-151-251-155-255-
160-260-240400-
WEST CENTRAL FLORIDA

CITY           SKY/WX    TMP DP  RH WIND       PRES   REMARKS
CRYSTAL RIVER  FAIR      72  68  88 W3        29.81S
INVERNESS      FAIR      70  70 100 CALM      29.82S
BROOKSVILLE    CLEAR     70  67  90 CALM      29.83R
CLEARWATER AIR FAIR      72  68  88 W5        29.82S
ST PETE CLEARW PTCLDY    73  68  84 NW6       29.82R
TAMPA INTL     MOCLDY    76  68  76 NW5       29.83R
TAMPA EXEC     PTCLDY    72  66  83 CALM      29.83R
PLANT CITY     PTCLDY    75  68  78 CALM      29.84S
MACDILL AFB    CLEAR     74  71  89 NW3       29.82R
PETER O KNIGHT MOCLDY    77  70  78 NW3       29.83R
ST PETERSBURG  MOCLDY    75  68  78 NW6       29.81R
SARASOTA       PTCLDY    73  68  84 NW3       29.82R
VENICE         CLOUDY    75  70  83 NW7       29.84R

STATION/POSITION SKY/WX   TEMP    WIND        PRES    WAVE   SWELL
                          AIR SEA DIR/SP/G            HT/PER HT/PER
                          (F)     (DEG/KT/KT) (MB)    (FT/S) (FT/S)
27.3N   84.2W                 77                N/A     1/ 5
CLEARWATER BEACH           75 79  270/  9/ 10 1010.0R
MIDDLE TAMPA BAY           75     330/  6/  8 1010.1R
VENICE                     76 77  320/ 10/ 12 1009.8R

$$
FLZ066-069-070-075>078-162-262-165-265-240400-
SOUTHWEST FLORIDA AND KEYS

CITY           SKY/WX    TMP DP  RH WIND       PRES   REMARKS
PUNTA GORDA    MOCLDY    75  66  73 CALM      29.84R
FT MYERS       CLEAR     75  67  76 CALM      29.82R
SOUTHWEST INTL CLEAR     72  66  81 CALM      29.82R
NAPLES         PTCLDY    76  69  79 N5        29.82R
IMMOKALEE      MOCLDY    68  66  94 CALM      29.81S
MARATHON       PTCLDY    77  73  87 CALM      29.81R
KEY WEST NAS   PTCLDY   N/A N/A N/A N6        29.82R
KEY WEST INTL  MOCLDY    77  73  87 N5        29.83R

STATION/POSITION SKY/WX   TEMP    WIND        PRES    WAVE   SWELL
                          AIR SEA DIR/SP/G            HT/PER HT/PER
                          (F)     (DEG/KT/KT) (MB)    (FT/S) (FT/S)
NAPLES                        76  320/  7/  9 1009.6R
26.0N   85.6W              76     280/ 10/ 14 1010.6R   2/ 6   2/ 6
DRY TORTUGAS               76     350/ 13/ 14 1010.6R
SAND KEY                   76     330/  7/  8 1010.5R
LONG KEY                   77 78  330/  6/  7 1009.3R
MOLASSES REEF              74 78  340/  4/  6 1009.4R

$$
FLZ067-068-071>074-168-172>174-240400-
SOUTHEAST FLORIDA

CITY           SKY/WX    TMP DP  RH WIND       PRES   REMARKS
W PALM BEACH   PTCLDY    69  68  96 N3        29.79R
FT LAUDER-EXEC CLEAR     73  68  84 W6        29.78S
FT LAUDERDALE  PTCLDY    72  70  93 NW5       29.78S
POMPANO BEACH  MOCLDY    72  70  93 W5        29.78S
PEMBROKE PINES CLEAR     72  69  90 NW3       29.80S
OPA LOCKA      CLEAR    N/A N/A N/A W5        29.79S
MIAMI          PTCLDY    73  70  90 W3        29.79S
WEST KENDALL   CLEAR     70  67  90 W5        29.79S
HOMESTEAD      CLEAR     71  71 100 CALM      29.79S

STATION/POSITION SKY/WX   TEMP    WIND        PRES    WAVE   SWELL
                          AIR SEA DIR/SP/G            HT/PER HT/PER
                          (F)     (DEG/KT/KT) (MB)    (FT/S) (FT/S)
PORT EVERGLADES            74     300/  5/  6 1008.4S
VIRGINIA KEY               74 77  260/  2/  4 1007.8F
LAKE WORTH                 75 77   80/  6/  7 1009.3R
FOWEY ROCKS                74 77  280/  6/  7 1009.2F
SETTLEMENT POINT           74     280/  9/ 10 1007.2F

$$





USA.gov is the U.S. government's official web portal to all federal, state and local government web resources and services.